TimeCDT,TemperatureF,Dew PointF,Humidity,Sea Level PressureIn,VisibilityMPH,Wind Direction,Wind SpeedMPH,Gust SpeedMPH,PrecipitationIn,Events,Conditions,WindDirDegrees,DateUTC
12:13 AM,-2.2,-7.6,78,29.94,10.0,Calm,Calm,-,N/A,,Clear,0,2014-03-13 05:13:00
12:33 AM,-2.2,-7.6,78,29.93,10.0,Calm,Calm,-,N/A,,Clear,0,2014-03-13 05:33:00
12:53 AM,-0.4,-5.8,78,29.93,10.0,WNW,4.6,-,N/A,,Clear,300,2014-03-13 05:53:00
1:13 AM,-0.4,-5.8,78,29.92,10.0,Calm,Calm,-,N/A,,Clear,0,2014-03-13 06:13:00
1:33 AM,-0.4,-5.8,78,29.91,10.0,Calm,Calm,-,N/A,,Clear,0,2014-03-13 06:33:00
1:53 AM,-0.4,-5.8,78,29.90,10.0,Calm,Calm,-,N/A,,Clear,0,2014-03-13 06:53:00
2:13 AM,1.4,-4.0,78,29.89,10.0,Calm,Calm,-,N/A,,Mostly Cloudy,0,2014-03-13 07:13:00
2:33 AM,3.2,-2.2,78,29.88,10.0,West,3.5,-,N/A,,Overcast,270,2014-03-13 07:33:00
2:53 AM,5.0,-0.4,78,29.87,10.0,West,4.6,-,N/A,,Overcast,260,2014-03-13 07:53:00
3:13 AM,8.6,1.4,73,29.87,10.0,West,4.6,-,N/A,,Overcast,260,2014-03-13 08:13:00
3:33 AM,12.2,1.4,62,29.85,10.0,WSW,4.6,-,N/A,,Overcast,250,2014-03-13 08:33:00
3:53 AM,12.2,3.2,67,29.85,10.0,WSW,4.6,-,N/A,,Overcast,240,2014-03-13 08:53:00
4:13 AM,14.0,3.2,62,29.84,10.0,SW,4.6,-,N/A,,Overcast,230,2014-03-13 09:13:00
4:33 AM,14.0,5.0,67,29.83,10.0,SW,9.2,-,N/A,,Overcast,220,2014-03-13 09:33:00
4:53 AM,15.8,6.8,68,29.81,10.0,SW,9.2,-,N/A,,Overcast,220,2014-03-13 09:53:00
5:13 AM,15.8,6.8,68,29.81,10.0,SW,9.2,-,N/A,,Overcast,220,2014-03-13 10:13:00
5:33 AM,17.6,6.8,63,29.80,10.0,SW,6.9,-,N/A,,Overcast,220,2014-03-13 10:33:00
5:53 AM,17.6,6.8,63,29.79,10.0,SW,6.9,-,N/A,,Overcast,230,2014-03-13 10:53:00
6:13 AM,17.6,6.8,63,29.78,10.0,SW,8.1,-,N/A,,Overcast,230,2014-03-13 11:13:00
6:33 AM,17.6,6.8,63,29.77,10.0,WSW,5.8,-,N/A,,Overcast,240,2014-03-13 11:33:00
6:53 AM,17.6,8.6,68,29.76,10.0,SW,6.9,-,N/A,,Overcast,230,2014-03-13 11:53:00
7:13 AM,17.6,8.6,68,29.76,10.0,WSW,8.1,-,N/A,,Overcast,240,2014-03-13 12:13:00
7:33 AM,17.6,8.6,68,29.76,10.0,WSW,6.9,-,N/A,,Overcast,240,2014-03-13 12:33:00
7:53 AM,19.4,10.4,68,29.76,10.0,SW,4.6,-,N/A,,Overcast,230,2014-03-13 12:53:00
8:13 AM,19.4,10.4,68,29.75,10.0,SW,3.5,-,N/A,,Overcast,220,2014-03-13 13:13:00
8:33 AM,19.4,12.2,74,29.75,10.0,SW,3.5,-,N/A,,Overcast,220,2014-03-13 13:33:00
8:53 AM,19.4,12.2,74,29.74,10.0,SW,5.8,-,N/A,,Overcast,230,2014-03-13 13:53:00
9:13 AM,21.2,12.2,68,29.73,10.0,SSW,4.6,-,N/A,,Overcast,210,2014-03-13 14:13:00
9:33 AM,21.2,15.8,80,29.73,10.0,SSW,5.8,-,N/A,,Overcast,210,2014-03-13 14:33:00
9:54 AM,23.0,15.8,74,29.73,10.0,SW,6.9,-,N/A,,Overcast,230,2014-03-13 14:54:00
10:13 AM,24.8,17.6,74,29.72,10.0,SW,9.2,-,N/A,,Overcast,230,2014-03-13 15:13:00
10:33 AM,24.8,17.6,74,29.71,10.0,WSW,10.4,-,N/A,,Overcast,240,2014-03-13 15:33:00
10:54 AM,26.6,19.4,74,29.70,10.0,SW,8.1,17.3,N/A,,Overcast,230,2014-03-13 15:54:00
11:13 AM,26.6,19.4,74,29.69,10.0,SW,10.4,-,N/A,,Overcast,230,2014-03-13 16:13:00
11:33 AM,26.6,19.4,74,29.68,10.0,SW,6.9,-,N/A,,Overcast,230,2014-03-13 16:33:00
11:54 AM,28.4,21.2,74,29.67,10.0,SSW,6.9,-,N/A,,Scattered Clouds,200,2014-03-13 16:54:00
12:13 PM,30.2,21.2,69,29.65,10.0,SW,6.9,-,N/A,,Clear,230,2014-03-13 17:13:00
12:33 PM,30.2,21.2,69,29.64,10.0,South,6.9,-,N/A,,Clear,190,2014-03-13 17:33:00
12:54 PM,30.2,21.2,69,29.64,10.0,South,11.5,-,N/A,,Clear,190,2014-03-13 17:54:00
1:13 PM,32.0,21.2,64,29.64,10.0,SSW,10.4,-,N/A,,Clear,200,2014-03-13 18:13:00
1:33 PM,33.8,23.0,65,29.63,10.0,SW,9.2,-,N/A,,Clear,220,2014-03-13 18:33:00
1:54 PM,35.6,23.0,60,29.61,10.0,SSW,9.2,-,N/A,,Clear,210,2014-03-13 18:54:00
2:13 PM,35.6,24.8,65,29.60,10.0,SSW,6.9,-,N/A,,Clear,200,2014-03-13 19:13:00
2:33 PM,35.6,24.8,65,29.59,10.0,SSW,10.4,-,N/A,,Clear,200,2014-03-13 19:33:00
2:54 PM,35.6,24.8,65,29.58,10.0,SW,10.4,-,N/A,,Clear,220,2014-03-13 19:54:00
3:13 PM,37.4,24.8,60,29.56,10.0,SSW,10.4,-,N/A,,Clear,210,2014-03-13 20:13:00
3:33 PM,37.4,24.8,60,29.55,10.0,SSW,11.5,-,N/A,,Clear,200,2014-03-13 20:33:00
3:53 PM,39.2,24.8,56,29.54,10.0,SW,12.7,18.4,N/A,,Clear,220,2014-03-13 20:53:00
4:13 PM,39.2,26.6,61,29.53,10.0,SW,13.8,18.4,N/A,,Clear,230,2014-03-13 21:13:00
4:33 PM,41.0,26.6,57,29.53,10.0,SSW,10.4,17.3,N/A,,Clear,210,2014-03-13 21:33:00
4:53 PM,39.2,26.6,61,29.52,10.0,SSW,13.8,23.0,N/A,,Clear,210,2014-03-13 21:53:00
5:14 PM,41.0,26.6,57,29.51,10.0,SSW,12.7,-,N/A,,Clear,210,2014-03-13 22:14:00
5:33 PM,41.0,26.6,57,29.50,10.0,SSW,8.1,-,N/A,,Clear,210,2014-03-13 22:33:00
5:53 PM,41.0,26.6,57,29.49,10.0,SSW,9.2,16.1,N/A,,Clear,200,2014-03-13 22:53:00
6:14 PM,41.0,26.6,57,29.48,10.0,SSW,5.8,-,N/A,,Clear,200,2014-03-13 23:14:00
6:33 PM,39.2,26.6,61,29.48,10.0,SSW,8.1,-,N/A,,Clear,210,2014-03-13 23:33:00
6:53 PM,39.2,26.6,61,29.48,10.0,SSW,6.9,-,N/A,,Clear,210,2014-03-13 23:53:00
7:13 PM,37.4,26.6,65,29.46,10.0,SSW,8.1,-,N/A,,Clear,210,2014-03-14 00:13:00
7:33 PM,37.4,26.6,65,29.46,10.0,SSW,8.1,-,N/A,,Clear,210,2014-03-14 00:33:00
7:53 PM,39.2,26.6,61,29.46,10.0,SW,11.5,-,N/A,,Clear,220,2014-03-14 00:53:00
8:13 PM,39.2,28.4,65,29.45,10.0,SW,9.2,-,N/A,,Clear,220,2014-03-14 01:13:00
8:34 PM,39.2,28.4,65,29.45,10.0,SW,6.9,-,N/A,,Clear,220,2014-03-14 01:34:00
8:53 PM,39.2,28.4,65,29.43,10.0,SW,5.8,-,N/A,,Clear,230,2014-03-14 01:53:00
9:13 PM,37.4,26.6,65,29.42,10.0,SW,5.8,-,N/A,,Clear,230,2014-03-14 02:13:00
9:34 PM,37.4,26.6,65,29.41,10.0,SW,5.8,-,N/A,,Clear,220,2014-03-14 02:34:00
9:53 PM,37.4,26.6,65,29.41,10.0,WSW,4.6,-,N/A,,Clear,240,2014-03-14 02:53:00
10:13 PM,37.4,28.4,70,29.40,10.0,WSW,4.6,-,N/A,,Clear,240,2014-03-14 03:13:00
10:34 PM,37.4,28.4,70,29.39,10.0,WSW,4.6,-,N/A,,Clear,240,2014-03-14 03:34:00
10:53 PM,35.6,28.4,75,29.39,10.0,WSW,3.5,-,N/A,,Clear,240,2014-03-14 03:53:00
11:13 PM,37.4,28.4,70,29.38,10.0,WSW,6.9,-,N/A,,Clear,240,2014-03-14 04:13:00
11:33 PM,39.2,30.2,70,29.38,10.0,WSW,8.1,-,N/A,,Clear,250,2014-03-14 04:33:00
11:53 PM,39.2,30.2,70,29.38,10.0,WSW,4.6,-,N/A,,Clear,250,2014-03-14 04:53:00